[[{"header":{"parameterUnit":"m.s-1","parameterCategory":1,"la1":30.2991,"la2":30.254,"lo1":-89.0895,"lo2":-89.0444,"dy":0.0017,"dx":0.0017,"nx":28,"ny":28,"refTime":"2024-05-27T03:00:00:Z","depth":0,"parameterNumber":2,"parameterNumberName":"U-component_of_WINDS"},"data":[0,0,0,0,0,0,0,0,0,0,0,0,0,0,0,0,0,0,0,0,0,0,0,0,0,0,0,0,0,0,0,0,0,0,0,0,0,0,0,0,0,0,0,0,0,0,0,0,0,0,0,0,0,0,0,0,0,0,2.9374,2.9375,0,2.9435,2.9436,2.9437,2.9394,2.9392,2.939,2.9388,2.9449,2.9453,2.9456,0,0,0,0,0,0,0,0,0,0,0,0,0,2.9218,2.9221,2.9374,2.9375,2.9376,2.9435,2.9436,2.9437,2.9394,2.9392,2.9389,2.9387,2.9448,2.9452,2.9456,0,0,0,0,0,0,0,0,0,0,0,0,0,2.9283,2.9222,2.9374,2.9361,2.9361,2.9435,2.9436,2.9437,2.9395,2.9392,2.9389,2.9386,2.9447,2.9452,2.9457,2.9546,0,0,2.9473,2.9475,0,0,0,0,0,0,0,0,2.928,2.9289,2.9362,2.9362,2.9362,2.9404,2.9403,2.9473,2.9395,2.9382,2.9388,2.9385,2.9436,2.9442,2.946,2.9549,2.9552,2.9473,2.9476,2.9478,2.948,0,0,0,0,0,0,0,2.9275,2.9286,2.9398,2.9364,2.9363,2.9352,2.9358,2.9416,2.9424,2.9383,2.938,2.9388,2.9436,2.9455,2.9461,2.9552,2.9473,2.9477,2.9481,2.9483,2.9715,2.9718,0,0,0,0,0,0,2.9272,2.9283,2.9396,2.94,2.9313,2.9357,2.9364,2.9393,2.9424,2.9426,2.939,2.9385,2.9448,2.9455,2.9463,2.9567,2.9478,2.9483,2.9486,2.9712,2.9716,2.9719,0,0,0,0,0,0,2.9269,2.9283,2.9394,2.9341,2.9354,2.9363,2.9396,2.9396,2.9415,2.9429,2.943,2.9408,2.9446,2.9456,2.9525,2.9569,2.9485,2.949,2.9709,2.9713,2.9718,2.9778,0,0,0,0,0,0,2.9265,2.9282,2.9316,2.9342,2.9357,2.9456,2.9399,2.9399,2.9424,2.9419,2.9447,2.9449,2.9444,2.9518,2.953,2.9574,2.9494,2.9705,2.9711,2.9716,2.9772,2.9784,2.9794,0,0,0,0,0,2.9259,2.9331,2.9318,2.9332,2.94,2.9458,2.9467,2.9461,2.9428,2.9462,2.9471,2.9448,2.9563,2.9525,2.9539,2.9585,2.9702,2.9709,2.9716,2.9767,2.9782,2.9794,0,0,0,0,0,0,2.9309,2.9334,2.932,2.9402,2.9429,2.9451,2.9494,2.9477,2.9513,2.9506,2.9497,2.9503,2.9576,2.9588,2.9546,2.9672,2.9627,2.9637,2.9661,2.9675,2.9686,2.968,2.9498,0,0,0,0,0,2.933,2.9376,2.9395,2.9465,2.9479,2.9485,2.951,2.9503,2.9529,2.954,2.9554,2.958,2.9622,2.965,2.9689,2.9774,2.9778,2.9813,2.9824,2.9833,2.9841,2.9885,2.99,2.9742,2.9742,2.9742,0,0,2.9373,2.9392,2.9422,2.9476,2.9495,2.9542,2.9494,2.9546,2.9579,2.9548,2.9613,2.9625,2.9654,2.9731,2.9765,2.9743,2.9886,2.9842,2.9849,2.9852,2.9893,2.9908,2.9922,2.9747,2.9746,2.9745,0,0,2.9475,2.9495,2.9555,2.9576,2.9606,2.9609,2.9624,2.9649,2.9655,2.9721,2.9697,2.9738,2.9811,2.9831,2.9852,2.9961,2.994,2.9975,3.0032,3.0074,3.0087,3.0098,3.0134,3.0148,2.9983,2.9983,2.9983,0,2.9524,2.9594,2.9588,2.9641,2.9664,2.9639,2.9698,2.9719,2.976,2.9777,2.9752,2.9842,2.9859,2.994,2.9966,2.9985,2.9999,2.997,3.0086,3.0097,3.0107,3.0141,3.0155,2.9987,2.9986,2.9986,2.9986,0,2.9652,2.9701,2.9745,2.9786,2.9815,2.9871,2.9873,2.9903,2.9894,2.9899,2.9966,2.9987,3.0029,3.0048,3.004,3.0127,3.0112,3.0087,3.0041,3.0125,3.0158,3.0171,2.9992,2.9991,2.999,2.9989,0,0,2.9785,2.9822,2.9838,2.9855,2.9887,2.9924,2.9979,3.0021,3.0046,3.0076,3.012,3.0182,3.0159,3.0181,3.0176,3.0214,3.0296,3.0183,3.0184,3.0201,3.0391,3.0408,3.0423,3.0284,3.0286,3.0288,3.0387,0,2.9886,2.9982,2.9978,3.0066,3.011,3.0086,3.0134,3.0158,3.0165,3.0202,3.021,3.0253,3.022,3.0233,3.027,3.0278,3.0333,3.0271,3.0323,3.0325,3.0313,3.0441,3.0459,3.0551,3.04,3.0403,3.0404,0,3.0016,3.005,3.0144,3.0167,3.0186,3.0228,3.0265,3.0302,3.0329,3.0331,3.0357,3.0345,3.0399,3.0353,3.0427,3.0385,3.0406,3.0413,3.0417,3.0419,3.0367,3.0444,3.0581,3.0594,3.0425,3.0423,3.0421,0,3.0101,3.017,3.0234,3.025,3.0281,3.0311,3.0325,3.0349,3.0374,3.0406,3.0422,3.0461,3.0481,3.0511,3.0509,3.0477,3.0583,3.0538,3.0585,3.0585,3.0606,3.0604,3.0746,3.0625,3.0624,3.0624,3.0624,0,3.0212,3.027,3.0272,3.0311,3.0374,3.037,3.0432,3.0443,3.0464,3.0504,3.0487,3.0525,3.0521,3.0559,3.0559,3.0618,3.0629,3.0631,3.0629,3.063,3.063,3.0642,3.0634,3.0628,3.0627,3.0626,3.0626,0,3.0316,3.0321,3.0388,3.0412,3.0419,3.0464,3.0484,3.052,3.0526,3.0577,3.0588,3.0597,3.0641,3.0642,3.0693,3.0692,3.0764,3.0757,3.0755,3.0753,3.0798,3.0793,3.095,3.097,3.0839,3.084,3.0841,0,3.0386,3.0429,3.0457,3.0483,3.0498,3.054,3.0565,3.0563,3.0589,3.0623,3.0655,3.0697,3.073,3.0801,3.0811,3.085,3.0842,3.0894,3.0847,3.0847,3.0839,3.0835,3.0839,3.0902,3.0904,3.0905,3.0906,0,3.0507,3.0507,3.0545,3.0583,3.0613,3.0643,3.0671,3.0693,3.0693,3.0724,3.0768,3.0794,3.0846,3.0887,3.0924,3.0938,3.0921,3.0921,3.0934,3.0934,3.093,3.093,3.0777,3.0917,3.0916,3.0915,3.0915,3.0914,3.0594,3.0631,3.0656,3.0698,3.0718,3.0744,3.0779,3.079,3.0827,3.0868,3.0865,3.0913,3.0938,3.0986,3.1003,3.1041,3.1022,3.1041,3.1045,3.1049,3.1052,3.0926,3.1048,3.1048,3.1047,3.1047,3.1047,0,3.0713,3.0728,3.0767,3.0805,3.0838,3.0822,3.0851,3.0879,3.0922,3.0947,3.098,3.1031,3.1071,3.1085,3.1123,3.1151,3.1144,3.1161,3.1157,3.116,3.1068,3.1052,3.1165,3.1165,3.1165,3.1165,3.1165,3.1165,3.0778,3.0838,3.0842,3.0912,3.0926,3.0974,3.0992,3.1016,3.1035,3.1092,3.1126,3.1135,3.1154,3.1194,3.123,3.1233,3.1247,3.1266,3.1266,3.1179,3.1167,3.1155,3.114,3.127,3.127,3.1354,3.1355,3.1356]},{"header":{"parameterUnit":"m.s-1","parameterCategory":1,"la1":30.2991,"la2":30.254,"lo1":-89.0895,"lo2":-89.0444,"dy":0.0017,"dx":0.0017,"nx":28,"ny":28,"refTime":"2024-05-27T03:00:00:Z","depth":0,"parameterNumber":3,"parameterNumberName":"V-component_of_WINDS"},"data":[0,0,0,0,0,0,0,0,0,0,0,0,0,0,0,0,0,0,0,0,0,0,0,0,0,0,0,0,0,0,0,0,0,0,0,0,0,0,0,0,0,0,0,0,0,0,0,0,0,0,0,0,0,0,0,0,0,0,1.5374,1.5374,0,1.5438,1.5439,1.5439,1.5425,1.5424,1.5423,1.5422,1.5487,1.549,1.5493,0,0,0,0,0,0,0,0,0,0,0,0,0,1.5238,1.524,1.5374,1.5374,1.5375,1.5438,1.5439,1.544,1.5425,1.5424,1.5422,1.5421,1.5486,1.549,1.5493,0,0,0,0,0,0,0,0,0,0,0,0,0,1.5299,1.5241,1.5373,1.5376,1.5376,1.5438,1.5439,1.544,1.5426,1.5424,1.5422,1.542,1.5485,1.5489,1.5494,1.5557,0,0,1.5507,1.5509,0,0,0,0,0,0,0,0,1.5295,1.5304,1.5374,1.5376,1.5377,1.5422,1.5415,1.5479,1.5426,1.5407,1.5422,1.5419,1.5467,1.5473,1.5489,1.556,1.5562,1.5507,1.551,1.5512,1.5513,0,0,0,0,0,0,0,1.5291,1.5301,1.5399,1.5376,1.5377,1.5373,1.538,1.5427,1.5446,1.5408,1.5408,1.5415,1.5467,1.5484,1.549,1.5563,1.5507,1.5511,1.5513,1.5515,1.5688,1.569,0,0,0,0,0,0,1.5286,1.5297,1.5397,1.5401,1.5331,1.5377,1.5385,1.5409,1.5446,1.545,1.5417,1.5415,1.5478,1.5485,1.5492,1.5568,1.5512,1.5516,1.5518,1.5686,1.5689,1.5691,0,0,0,0,0,0,1.5283,1.5295,1.5394,1.5349,1.5361,1.5381,1.5409,1.5411,1.5429,1.5452,1.5455,1.5431,1.5477,1.5486,1.554,1.557,1.5518,1.5521,1.5684,1.5687,1.569,1.572,0,0,0,0,0,0,1.5279,1.5294,1.5318,1.535,1.5364,1.5442,1.5411,1.5414,1.5436,1.5434,1.5466,1.547,1.5476,1.5534,1.5545,1.5575,1.5525,1.5681,1.5685,1.5689,1.5716,1.5723,1.573,0,0,0,0,0,1.5274,1.5324,1.532,1.5332,1.5395,1.5444,1.5452,1.5458,1.5439,1.5463,1.5478,1.5469,1.5565,1.554,1.5552,1.5584,1.568,1.5684,1.5689,1.5713,1.5722,1.5729,0,0,0,0,0,0,1.5296,1.5329,1.5324,1.5385,1.5412,1.5441,1.5472,1.5467,1.5499,1.5496,1.5502,1.5509,1.5564,1.5579,1.5551,1.5646,1.5619,1.5627,1.5634,1.5643,1.5649,1.5644,1.5528,0,0,0,0,0,1.5308,1.5345,1.5372,1.5423,1.5437,1.5452,1.5474,1.5476,1.5504,1.5515,1.5534,1.5561,1.5597,1.5621,1.5655,1.5718,1.5725,1.5746,1.5753,1.5758,1.5764,1.5798,1.5807,1.5706,1.5706,1.5706,0,0,1.5333,1.5356,1.5379,1.5428,1.5449,1.5487,1.5462,1.5503,1.5531,1.5521,1.5573,1.5588,1.5619,1.5677,1.5704,1.5692,1.5793,1.5764,1.5768,1.5771,1.5803,1.5813,1.5821,1.5709,1.5708,1.5708,0,0,1.5398,1.5419,1.5464,1.5485,1.5517,1.5527,1.5538,1.5568,1.5577,1.563,1.5623,1.5656,1.5718,1.574,1.5759,1.5832,1.5825,1.5843,1.5878,1.5911,1.5919,1.5926,1.5951,1.596,1.5849,1.5849,1.5849,0,1.5425,1.5483,1.5488,1.553,1.5552,1.5544,1.5589,1.561,1.5651,1.5666,1.5652,1.5729,1.5749,1.5813,1.583,1.5846,1.5858,1.5839,1.5917,1.5924,1.5931,1.5955,1.5965,1.5851,1.5851,1.5851,1.5851,0,1.5514,1.5554,1.5586,1.5626,1.5652,1.5695,1.5707,1.5732,1.5732,1.5743,1.5796,1.582,1.5859,1.5874,1.5875,1.5938,1.5929,1.5916,1.5889,1.5943,1.5965,1.5975,1.5854,1.5853,1.5853,1.5852,0,0,1.5595,1.5637,1.5649,1.5666,1.5701,1.5731,1.5774,1.5812,1.5833,1.5862,1.5898,1.595,1.5938,1.596,1.5963,1.5992,1.6047,1.5975,1.5976,1.5987,1.6117,1.6126,1.6137,1.6042,1.6044,1.6045,1.6114,0,1.5662,1.5738,1.5744,1.5812,1.5848,1.5841,1.5879,1.5903,1.5915,1.5947,1.596,1.5997,1.5978,1.5991,1.602,1.6034,1.6073,1.6029,1.6075,1.6077,1.6068,1.6149,1.6159,1.6223,1.6123,1.6125,1.6126,0,1.5752,1.5783,1.5854,1.5883,1.5898,1.5932,1.5967,1.5998,1.6026,1.6032,1.6056,1.6055,1.6098,1.607,1.613,1.61,1.6119,1.6129,1.6132,1.6136,1.6104,1.6155,1.6244,1.6253,1.614,1.6139,1.6138,0,1.5802,1.5862,1.5913,1.5928,1.5963,1.5987,1.6002,1.6028,1.605,1.6081,1.6095,1.613,1.615,1.6177,1.6185,1.6164,1.6244,1.6217,1.625,1.625,1.6267,1.6266,1.636,1.628,1.628,1.628,1.628,0,1.5877,1.5921,1.5936,1.5967,1.6016,1.6022,1.607,1.6084,1.6108,1.6141,1.6137,1.6168,1.6177,1.621,1.6216,1.6265,1.6273,1.6279,1.6281,1.628,1.6279,1.6292,1.6288,1.6282,1.6282,1.6281,1.6281,0,1.5942,1.5954,1.6009,1.6037,1.6045,1.608,1.6104,1.6133,1.6144,1.6186,1.6196,1.6213,1.6252,1.6262,1.6308,1.6313,1.6369,1.6366,1.636,1.636,1.6392,1.6389,1.6498,1.6512,1.6423,1.6424,1.6425,0,1.5989,1.6023,1.6054,1.6076,1.6093,1.6129,1.6151,1.6158,1.6182,1.6216,1.6241,1.6279,1.631,1.6371,1.6388,1.6423,1.642,1.6456,1.6426,1.6423,1.642,1.6418,1.6421,1.6462,1.6463,1.6463,1.6464,0,1.607,1.6075,1.6107,1.6142,1.617,1.6197,1.6224,1.6242,1.6253,1.628,1.6319,1.6343,1.639,1.6427,1.6462,1.6478,1.6473,1.6473,1.6483,1.6482,1.6477,1.648,1.6375,1.6471,1.647,1.647,1.6469,1.6469,1.6128,1.6157,1.6184,1.622,1.6241,1.6266,1.6295,1.631,1.6342,1.6381,1.6383,1.6426,1.6452,1.6499,1.6516,1.6549,1.6539,1.6552,1.6556,1.6559,1.6562,1.6472,1.6556,1.6555,1.6555,1.6555,1.6555,0,1.6208,1.6225,1.6259,1.6296,1.6325,1.6318,1.6347,1.6371,1.6408,1.6434,1.6464,1.6508,1.6545,1.6563,1.6599,1.6622,1.662,1.6631,1.6629,1.6633,1.6569,1.6557,1.6632,1.6632,1.6632,1.6632,1.6632,1.6632,1.6254,1.6303,1.631,1.6369,1.6386,1.6427,1.6445,1.6467,1.6487,1.6537,1.6568,1.658,1.6602,1.6639,1.6672,1.6677,1.669,1.6702,1.6705,1.6645,1.6637,1.663,1.6619,1.6705,1.6705,1.6766,1.6766,1.6767]}]]